Location: Leuk
(46.3174°N, 7.6341°E)
Time: 14:46:30
(UTC+00:00)

Sich 1 - Pass Details

Date: 09 March 2021
Orbit: 593 x 626 km, 82.5° (Epoch: 14 April)

Event Time Altitude Azimuth Distance (km) Brightness Sun altitude
Rises 04:44:05 0° 340° (NNW) 2,914 6.4 -12.8°
Reaches altitude 10° 04:46:37 10° 327° (NNW) 1,998 5.4 -12.4°
Maximum altitude 04:50:15 26° 272° (W) 1,239 4.0 -11.8°
Drops below altitude 10° 04:53:51 10° 216° (SW) 1,970 5.3 -11.2°
Sets 04:56:19 0° 204° (SSW) 2,863 6.2 -10.7°
